Latest Coastal Weather Observations for Melbourne

IDV60701

Issued at 5:55 am EST Saturday 20 September 2014 (issued every 10 minutes, with the page automatically refreshed every 10 minutes)

About coastal observations | Map of coastal stations | Coastal observations for VIC | Marine services | Other Formats
Station Details ID: 086071 Name: MELBOURNE REGIONAL OFFICE Lat: -37.81 Lon: 144.97 Height: 31.15 m
Data from the previous 72 hours. | See also: Recent months at Melbourne
Date/Time
EST
Temp

°C
Wind Pressure Rain
since 9am
mm
Weather Cloud Vis
km
Sea
Height
m
Swell
Dir
 
Speed
knots
Gust
knots
hPa Trend Height
m
Period
s
Dir
20/05:30am 10.8 - - - 1025.8 - 0.2 - - - - - - -
20/05:00am 10.5 - - - 1025.4 - 0.2 - - - - - - -
20/04:30am 10.5 - - - 1025.0 - 0.2 - - - - - - -
20/04:00am 10.7 - - - 1025.1 - 0.2 - - - - - - -
20/03:30am 11.1 - - - 1025.0 - 0.2 - - - - - - -
20/03:00am 11.2 - - - 1024.9 - 0.2 - - - - - - -
20/02:30am 11.5 - - - 1025.2 - 0.2 - - - - - - -
20/02:00am 11.4 - - - 1025.3 - 0.2 - - - - - - -
20/01:30am 11.5 - - - 1025.4 - 0.2 - - - - - - -
20/01:00am 11.5 - - - 1025.6 - 0.2 - - - - - - -
20/12:30am 11.7 - - - 1025.4 - 0.2 - - - - - - -
20/12:00am 12.3 - - - 1025.2 - 0.2 - - - - - - -
 
Date/Time
EST
Temp

°C
Wind Pressure Rain
since 9am
mm
Weather Cloud Vis
km
Sea
Height
m
Swell
Dir
 
Speed
knots
Gust
knots
hPa Trend Height
m
Period
s
Dir
19/11:30pm 12.7 - - - 1025.3 - 0.2 - - - - - - -
19/11:00pm 12.8 - - - 1025.5 - 0.2 - - - - - - -
19/10:30pm 13.0 - - - 1025.7 - 0.2 - - - - - - -
19/10:00pm 12.9 - - - 1025.8 - 0.2 - - - - - - -
19/09:30pm 13.0 - - - 1025.8 - 0.2 - - - - - - -
19/09:00pm 12.9 - - - 1025.7 - 0.2 - - - - - - -
19/08:30pm 13.2 - - - 1025.5 - 0.2 - - - - - - -
19/08:00pm 13.2 - - - 1025.4 - 0.2 - - - - - - -
19/07:30pm 13.1 - - - 1025.1 - 0.2 - - - - - - -
19/07:00pm 13.2 - - - 1024.8 - 0.2 - - - - - - -
19/06:30pm 13.1 - - - 1024.6 - 0.2 - - - - - - -
19/06:00pm 13.6 - - - 1024.6 - 0.2 - - - - - - -
19/05:30pm 14.2 - - - 1024.2 - 0.2 - - - - - - -
19/05:00pm 14.5 - - - 1024.0 - 0.2 - - - - - - -
19/04:30pm 14.2 - - - 1023.9 - 0.2 - - - - - - -
19/04:00pm 15.1 - - - 1023.8 - 0.2 - - - - - - -
19/03:30pm 14.8 - - - 1023.6 - 0.2 - - - - - - -
19/03:00pm 14.5 - - - 1023.7 R 0.2 Distant precip. Mostly cloudy 30 - - - -
19/02:30pm 15.1 - - - 1023.7 - 0.2 - - - - - - -
19/02:00pm 14.8 - - - 1023.8 - 0.2 - - - - - - -
19/01:30pm 15.5 - - - 1023.9 - 0.2 - - - - - - -
19/01:00pm 14.6 - - - 1024.2 - 0.2 - - - - - - -
19/12:30pm 14.7 - - - 1024.5 - 0.2 - - - - - - -
19/12:00pm 14.4 - - - 1024.7 R 0.2 Distant precip. Mostly cloudy 25 - - - -
19/11:30am 15.0 - - - 1024.7 - 0.0 - - - - - - -
19/11:00am 15.1 - - - 1024.8 - 0.0 - - - - - - -
19/10:30am 14.2 - - - 1025.0 - 0.0 - - - - - - -
19/10:00am 14.2 - - - 1025.1 - 0.0 - - - - - - -
19/09:30am 13.8 - - - 1025.1 - 0.0 - - - - - - -
19/09:00am 12.1 - - - 1025.2 S 1.4 Distant precip. Partly cloudy 30 - - - -
19/08:30am 10.5 - - - 1025.2 - 1.4 - - - - - - -
19/08:00am 9.4 - - - 1025.2 - 1.4 - - - - - - -
19/07:30am 8.7 - - - 1025.0 - 1.4 - - - - - - -
19/07:00am 8.7 - - - 1024.9 - 1.4 - - - - - - -
19/06:30am 9.0 - - - 1024.6 - 1.4 - - - - - - -
19/06:00am 9.0 - - - 1024.3 - 1.4 - - - - - - -
19/05:30am 9.3 - - - 1024.1 - 1.4 - - - - - - -
19/05:00am 9.4 - - - 1023.9 - 1.4 - - - - - - -
19/04:30am 9.0 - - - 1023.8 - 1.4 - - - - - - -
19/04:00am 8.9 - - - 1023.8 - 1.4 - - - - - - -
19/03:30am 8.7 - - - 1023.7 - 1.4 - - - - - - -
19/03:00am 8.7 - - - 1023.7 - 1.4 - - - - - - -
19/02:30am 8.7 - - - 1023.9 - 1.4 - - - - - - -
19/02:00am 9.2 - - - 1024.1 - 1.4 - - - - - - -
19/01:30am 9.0 - - - 1024.3 - 1.4 - - - - - - -
19/01:00am 8.9 - - - 1024.6 - 1.4 - - - - - - -
19/12:30am 9.1 - - - 1024.8 - 1.4 - - - - - - -
19/12:00am 9.4 - - - 1024.8 - 1.4 - - - - - - -
 
Date/Time
EST
Temp

°C
Wind Pressure Rain
since 9am
mm
Weather Cloud Vis
km
Sea
Height
m
Swell
Dir
 
Speed
knots
Gust
knots
hPa Trend Height
m
Period
s
Dir
18/11:30pm 9.9 - - - 1024.9 - 1.4 - - - - - - -
18/11:00pm 10.2 - - - 1025.1 - 1.4 - - - - - - -
18/10:30pm 10.8 - - - 1025.1 - 1.4 - - - - - - -
18/10:00pm 11.7 - - - 1024.9 - 1.4 - - - - - - -
18/09:30pm 11.4 - - - 1024.8 - 1.4 - - - - - - -
18/09:00pm 12.0 - - - 1024.7 - 1.4 - - - - - - -
18/08:30pm 12.2 - - - 1024.5 - 1.4 - - - - - - -
18/08:00pm 12.1 - - - 1024.5 - 1.4 - - - - - - -
18/07:30pm 12.1 - - - 1024.4 - 1.4 - - - - - - -
18/07:00pm 11.9 - - - 1024.0 - 1.4 - - - - - - -
18/06:30pm 12.2 - - - 1023.9 - 1.4 - - - - - - -
18/06:00pm 12.2 - - - 1023.7 - 1.4 - - - - - - -
18/05:30pm 12.6 - - - 1023.4 - 1.4 - - - - - - -
18/05:00pm 12.9 - - - 1023.1 - 1.4 - - - - - - -
18/04:30pm 12.7 - - - 1022.9 - 1.4 - - - - - - -
18/04:00pm 13.1 - - - 1022.8 - 1.4 - - - - - - -
18/03:30pm 13.7 - - - 1022.6 - 1.4 - - - - - - -
18/03:00pm 13.3 - - - 1022.7 R 1.4 Distant precip. Mostly cloudy 25 - - - -
18/02:30pm 13.6 - - - 1022.5 - 1.4 - - - - - - -
18/02:00pm 12.4 - - - 1022.6 - 1.4 - - - - - - -
18/01:30pm 12.5 - - - 1022.6 - 0.2 - - - - - - -
18/01:00pm 12.3 - - - 1022.7 - 0.2 - - - - - - -
18/12:30pm 13.1 - - - 1022.9 - 0.2 - - - - - - -
18/12:00pm 12.4 - - - 1023.0 - 0.2 - - - - - - -
18/11:30am 11.7 - - - 1023.1 - 0.2 - - - - - - -
18/11:00am 12.5 - - - 1023.0 - 0.2 - - - - - - -
18/10:30am 12.2 - - - 1023.1 - 0.2 - - - - - - -
18/10:00am 10.4 - - - 1023.1 - 0.2 - - - - - - -
18/09:30am 10.9 - - - 1022.9 - 0.0 - - - - - - -
18/09:00am 10.9 - - - 1022.7 R 0.4 Showers Mostly cloudy 25 - - - -
18/08:30am 9.9 - - - 1022.6 - 0.4 - - - - - - -
18/08:00am 8.9 - - - 1022.4 - 0.4 - - - - - - -
18/07:30am 8.4 - - - 1022.1 - 0.4 - - - - - - -
18/07:00am 8.4 - - - 1021.6 - 0.4 - - - - - - -
18/06:30am 8.1 - - - 1021.3 - 0.4 - - - - - - -
18/06:00am 7.9 - - - 1021.0 - 0.4 - - - - - - -
18/05:30am 7.7 - - - 1020.6 - 0.4 - - - - - - -
18/05:00am 7.8 - - - 1020.2 - 0.4 - - - - - - -
18/04:30am 8.0 - - - 1020.0 - 0.4 - - - - - - -
18/04:00am 8.0 - - - 1019.8 - 0.4 - - - - - - -
18/03:30am 7.8 - - - 1019.9 - 0.4 - - - - - - -
18/03:00am 8.3 - - - 1019.8 - 0.4 - - - - - - -
18/02:30am 8.4 - - - 1019.6 - 0.4 - - - - - - -
18/02:00am 8.6 - - - 1019.8 - 0.4 - - - - - - -
18/01:30am 8.2 - - - 1019.7 - 0.4 - - - - - - -
18/01:00am 8.1 - - - 1019.8 - 0.4 - - - - - - -
18/12:30am 8.1 - - - 1020.0 - 0.4 - - - - - - -
18/12:00am 8.4 - - - 1019.9 - 0.4 - - - - - - -
 
Date/Time
EST
Temp

°C
Wind Pressure Rain
since 9am
mm
Weather Cloud Vis
km
Sea
Height
m
Swell
Dir
 
Speed
knots
Gust
knots
hPa Trend Height
m
Period
s
Dir
17/11:30pm 8.4 - - - 1019.8 - 0.4 - - - - - - -
17/11:00pm 8.7 - - - 1019.7 - 0.4 - - - - - - -
17/10:30pm 8.8 - - - 1019.5 - 0.4 - - - - - - -
17/10:00pm 9.2 - - - 1019.6 - 0.4 - - - - - - -
17/09:30pm 9.8 - - - 1019.4 - 0.4 - - - - - - -
17/09:00pm 10.2 - - - 1019.0 - 0.4 - - - - - - -
17/08:30pm 10.3 - - - 1018.8 - 0.4 - - - - - - -
17/08:00pm 10.4 - - - 1018.6 - 0.4 - - - - - - -
17/07:30pm 10.7 - - - 1018.3 - 0.4 - - - - - - -
17/07:00pm 10.9 - - - 1018.1 - 0.4 - - - - - - -
17/06:30pm 11.1 - - - 1017.6 - 0.4 - - - - - - -
17/06:00pm 12.5 - - - 1017.3 - 0.2 - - - - - - -
17/05:30pm 12.6 - - - 1016.8 - 0.2 - - - - - - -
17/05:00pm 12.7 - - - 1016.4 - 0.2 - - - - - - -
17/04:30pm 13.1 - - - 1015.8 - 0.2 - - - - - - -
17/04:00pm 12.7 - - - 1015.6 - 0.2 - - - - - - -
17/03:30pm 13.4 - - - 1015.2 - 0.2 - - - - - - -
17/03:00pm 12.9 - - - 1014.9 R 0.2 Recent precip. Mostly cloudy 25 - - - -
17/02:30pm 13.9 - - - 1014.7 - 0.2 - - - - - - -
17/02:00pm 15.5 - - - 1014.1 - 0.2 - - - - - - -
17/01:30pm 16.2 - - - 1013.9 - 0.2 - - - - - - -
17/01:00pm 15.3 - - - 1013.8 - 0.2 - - - - - - -
17/12:30pm 15.0 - - - 1013.9 - 0.0 - - - - - - -
17/12:00pm 14.0 - - - 1013.9 R 0.0 Recent precip. Mostly cloudy 30 - - - -
17/11:30am 14.8 - - - 1013.8 - 0.0 - - - - - - -
17/11:00am 15.8 - - - 1013.8 - 0.0 - - - - - - -
17/10:30am 14.8 - - - 1013.9 - 0.0 - - - - - - -
17/10:00am 13.7 - - - 1013.9 - 0.0 - - - - - - -
17/09:30am 13.1 - - - 1013.8 - 0.0 - - - - - - -
17/09:00am 12.8 - - - 1013.7 F 3.4 Distant precip. Mostly cloudy 30 - - - -
17/08:30am 12.0 - - - 1013.8 - 3.4 - - - - - - -
17/08:00am 11.8 - - - 1013.8 - 3.4 - - - - - - -
17/07:30am 10.9 - - - 1013.6 - 3.4 - - - - - - -
17/07:00am 10.7 - - - 1013.4 - 3.4 - - - - - - -
17/06:30am 10.7 - - - 1013.2 - 3.4 - - - - - - -
17/06:00am 10.8 - - - 1013.0 - 3.4 - - - - - - -

Other Formats:

Comma delimited format used in spreadsheet applications
http://www.bom.gov.au/fwo/IDV60701/IDV60701.94868.axf

JavaScript Object Notation format (JSON) in row-major order
http://www.bom.gov.au/fwo/IDV60701/IDV60701.94868.json